DW2786 Weather Reports


time (UTC)temp
C
wind
direction
speed
KPH
gust
KPH
rain 1hr
cm
rain 24hr
cm
rain mn
cm
humidity
%
barometer
mb
20260510204819 22 16 1.6 6.4 0.00 0.00 0.00 65 1016.4
20260510204553 21 34 1.6 4.8 0.00 0.00 0.00 64 1015.8
20260510204536 21 0 0.0 4.8 0.00 0.00 0.00 64 1014.3
20260510204311 22 323 1.6 4.8 0.00 0.00 0.00 64 1016.4
20260510203820 22 16 0.0 3.2 0.00 0.00 0.00 65 1016.4
20260510203329 22 326 1.6 4.8 0.00 0.00 0.00 65 1016.3
20260510203038 21 22 1.6 4.8 0.00 0.00 0.00 64 1015.7
20260510203033 22 19 0.0 4.8 0.00 0.00 0.00 64 1014.2
20260510202812 22 337 1.6 4.8 0.00 0.00 0.00 64 1016.4
20260510202321 22 5 0.0 3.2 0.00 0.00 0.00 65 1016.5
20260510201831 22 5 0.0 3.2 0.00 0.00 0.00 64 1016.6
20260510201604 22 5 0.0 3.2 0.00 0.00 0.00 64 1016.0
20260510201542 22 0 0.0 3.2 0.00 0.00 0.00 64 1014.5
20260510201321 22 5 0.0 3.2 0.00 0.00 0.00 64 1016.5
20260510200830 22 5 0.0 3.2 0.00 0.00 0.00 64 1016.7
20260510200313 22 62 0.0 4.8 0.00 0.00 0.00 64 1016.6
20260510200046 22 348 1.6 4.8 0.00 0.00 0.00 64 1016.0
20260510200038 22 348 0.0 4.8 0.00 0.00 0.00 63 1014.5
20260510195821 22 30 0.0 3.2 0.00 0.00 0.00 65 1016.5
20260510195331 22 17 1.6 3.2 0.00 0.00 0.00 64 1016.6
20260510194821 22 15 0.0 6.4 0.00 0.00 0.00 63 1016.6
20260510194536 22 5 0.0 6.4 0.00 0.00 0.00 63 1014.5
20260510194503 22 5 0.0 6.4 0.00 0.00 0.00 64 1016.0
20260510194311 22 5 1.6 6.4 0.00 0.00 0.00 63 1016.6
20260510193819 23 12 3.2 6.4 0.00 0.00 0.00 62 1016.4
20260510193323 23 21 3.2 6.4 0.00 0.00 0.00 62 1016.6
20260510193054 23 15 1.6 4.8 0.00 0.00 0.00 62 1016.0
20260510193039 23 15 1.6 6.4 0.00 0.00 0.00 60 1014.6
20260510192812 23 5 1.6 6.4 0.00 0.00 0.00 62 1016.6
20260510192341 23 17 3.2 6.4 0.00 0.00 0.00 59 1016.7
20260510191857 24 22 4.8 6.4 0.00 0.00 0.00 58 1016.7
20260510191557 24 15 1.6 4.8 0.00 0.00 0.00 58 1016.1
20260510191533 25 349 1.6 4.8 0.00 0.00 0.00 57 1014.6
20260510191316 25 24 3.2 4.8 0.00 0.00 0.00 56 1016.8
20260510190821 25 5 3.2 8.0 0.00 0.00 0.00 57 1016.8
20260510190330 25 59 3.2 9.7 0.00 0.00 0.00 58 1016.7
20260510190044 25 47 3.2 9.7 0.00 0.00 0.00 55 1014.5
20260510190041 25 70 3.2 9.7 0.00 0.00 0.00 55 1016.1
20260510185813 25 38 3.2 9.7 0.00 0.00 0.00 58 1016.8
20260510185321 25 344 1.6 9.7 0.00 0.00 0.00 59 1016.6
20260510184811 25 57 3.2 9.7 0.00 0.00 0.00 59 1016.8
20260510184540 25 315 1.6 11.3 0.00 0.00 0.00 58 1014.6
20260510184522 25 323 3.2 6.4 0.00 0.00 0.00 59 1016.2
20260510184341 25 36 1.6 11.3 0.00 0.00 0.00 59 1016.8
20260510183829 25 26 1.6 11.3 0.00 0.00 0.00 60 1016.8
20260510183310 24 238 1.6 11.3 0.00 0.00 0.00 60 1016.7
20260510183051 24 182 0.0 11.3 0.00 0.00 0.00 61 1016.1
20260510183039 24 179 0.0 12.9 0.00 0.00 0.00 61 1014.4
20260510182819 24 25 3.2 11.3 0.00 0.00 0.00 61 1016.7
20260510182328 24 61 3.2 12.9 0.00 0.00 0.00 61 1016.6
20260510181836 23 252 3.2 11.3 0.00 0.00 0.00 64 1016.6
20260510181544 23 79 3.2 6.4 0.00 0.00 0.00 62 1016.0
20260510181538 23 128 3.2 9.7 0.00 0.00 0.00 61 1014.4
20260510181345 23 315 3.2 8.0 0.00 0.00 0.00 62 1016.6
20260510180834 23 60 1.6 8.0 0.00 0.00 0.00 61 1016.5
20260510180313 23 150 1.6 8.0 0.00 0.00 0.00 64 1016.5
20260510180053 22 329 0.0 8.0 0.00 0.00 0.00 64 1015.9
20260510180036 22 0 1.6 8.0 0.00 0.00 0.00 64 1014.3
20260510175850 23 360 4.8 8.0 0.00 0.00 0.00 64 1016.5
20260510175313 23 35 1.6 6.4 0.00 0.00 0.00 64 1016.4
20260510174822 22 5 0.0 4.8 0.00 0.00 0.00 65 1016.4
20260510174535 22 0 1.6 4.8 0.00 0.00 0.00 66 1014.4
20260510174522 22 287 1.6 4.8 0.00 0.00 0.00 66 1015.9
20260510174332 22 254 1.6 4.8 0.00 0.00 0.00 65 1016.5
20260510173815 22 12 1.6 3.2 0.00 0.00 0.00 68 1016.4
20260510173324 22 360 1.6 3.2 0.00 0.00 0.00 66 1016.4
20260510173110 22 298 0.0 3.2 0.00 0.00 0.00 66 1015.8
20260510173039 21 0 0.0 3.2 0.00 0.00 0.00 66 1014.2
20260510172815 22 304 1.6 3.2 0.00 0.00 0.00 66 1016.4
20260510172323 22 177 1.6 3.2 0.00 0.00 0.00 65 1016.4
20260510171812 22 254 1.6 3.2 0.00 0.00 0.00 66 1016.3
20260510171537 21 0 0.0 8.0 0.00 0.00 0.00 66 1014.2
20260510171520 21 267 0.0 4.8 0.00 0.00 0.00 66 1015.7
20260510171321 22 267 0.0 8.0 0.00 0.00 0.00 65 1016.3
20260510170831 22 191 1.6 8.0 0.00 0.00 0.00 66 1016.4
20260510170314 22 40 1.6 4.8 0.00 0.00 0.00 65 1016.3
20260510170105 22 272 0.0 4.8 0.00 0.00 0.00 65 1015.8
20260510170038 22 110 0.0 4.8 0.00 0.00 0.00 65 1014.2
20260510165824 22 281 1.6 4.8 0.00 0.00 0.00 66 1016.4
20260510165312 22 319 0.0 3.2 0.00 0.00 0.00 67 1016.5
20260510164844 22 23 0.0 6.4 0.00 0.00 0.00 65 1016.5
20260510164540 22 331 0.0 9.7 0.00 0.00 0.00 66 1014.3
20260510164537 22 331 1.6 9.7 0.00 0.00 0.00 67 1015.9
20260510164333 22 200 0.0 9.7 0.00 0.00 0.00 66 1016.4
20260510163813 22 113 1.6 4.8 0.00 0.00 0.00 68 1016.4
20260510163323 22 73 1.6 6.4 0.00 0.00 0.00 70 1016.4
20260510163037 21 24 1.6 6.4 0.00 0.00 0.00 69 1014.2
20260510163012 21 69 1.6 6.4 0.00 0.00 0.00 70 1015.9
20260510162812 21 159 1.6 3.2 0.00 0.00 0.00 70 1016.4
20260510162320 21 305 0.0 3.2 0.00 0.00 0.00 71 1016.5
20260510161831 21 246 1.6 3.2 0.00 0.00 0.00 73 1016.4
20260510161546 21 237 0.0 1.6 0.00 0.00 0.00 73 1015.8
20260510161534 21 0 0.0 1.6 0.00 0.00 0.00 73 1014.2
20260510161317 21 246 0.0 0.0 0.00 0.00 0.00 74 1016.3
20260510160824 21 246 0.0 0.0 0.00 0.00 0.00 73 1016.3
20260510160314 22 246 0.0 0.0 0.00 0.00 0.00 71 1016.3
20260510160039 21 0 0.0 1.6 0.00 0.00 0.00 69 1014.1
20260510160023 21 246 0.0 1.6 0.00 0.00 0.00 69 1015.8
20260510155823 22 246 0.0 1.6 0.00 0.00 0.00 69 1016.2
20260510155334 22 246 0.0 1.6 0.00 0.00 0.00 66 1016.3
20260510154816 22 242 0.0 4.8 0.00 0.00 0.00 64 1016.4
20260510154553 22 242 0.0 4.8 0.00 0.00 0.00 63 1016.0
20260510154539 22 0 0.0 4.8 0.00 0.00 0.00 63 1014.3
20260510154325 22 242 1.6 4.8 0.00 0.00 0.00 62 1016.5
20260510153814 23 257 0.0 3.2 0.00 0.00 0.00 63 1016.1
20260510153324 23 306 0.0 0.0 0.00 0.00 0.00 62 1016.2
20260510153043 22 306 0.0 1.6 0.00 0.00 0.00 60 1015.4
20260510153037 22 0 0.0 1.6 0.00 0.00 0.00 60 1013.8
20260510152813 23 306 0.0 1.6 0.00 0.00 0.00 59 1015.8
20260510152324 23 234 0.0 1.6 0.00 0.00 0.00 59 1015.6
20260510151809 23 234 0.0 3.2 0.00 0.00 0.00 59 1015.6
20260510151602 23 234 0.0 4.8 0.00 0.00 0.00 56 1015.2
20260510151538 23 0 0.0 9.7 0.00 0.00 0.00 56 1013.7
20260510151318 23 250 0.0 9.7 0.00 0.00 0.00 56 1015.9
20260510150828 23 263 3.2 9.7 0.00 0.00 0.00 57 1016.0
20260510150317 23 207 1.6 6.4 0.00 0.00 0.00 57 1016.1
20260510150042 23 171 1.6 9.7 0.00 0.00 0.00 57 1013.9
20260510145819 23 227 3.2 9.7 0.00 0.00 0.00 59 1016.1
20260510145324 23 270 4.8 9.7 0.00 0.00 0.00 60 1016.0
20260510144833 23 80 1.6 8.0 0.00 0.00 0.00 60 1016.0
20260510144553 22 36 3.2 8.0 0.00 0.00 0.00 60 1015.4
20260510144549 22 312 3.2 9.7 0.00 0.00 0.00 60 1013.8
20260510144322 22 318 3.2 8.0 0.00 0.00 0.00 61 1015.9
20260510143812 22 299 1.6 9.7 0.00 0.00 0.00 60 1016.0
20260510143323 22 287 3.2 9.7 0.00 0.00 0.00 60 1016.0
20260510143041 22 240 1.6 11.3 0.00 0.00 0.00 64 1015.5
20260510143038 22 240 1.6 11.3 0.00 0.00 0.00 64 1013.8
20260510142851 22 237 3.2 11.3 0.00 0.00 0.00 61 1016.0
20260510142310 22 301 4.8 11.3 0.00 0.00 0.00 61 1016.1
20260510141819 22 209 3.2 9.7 0.00 0.00 0.00 63 1016.1
20260510141554 21 256 1.6 8.0 0.00 0.00 0.00 63 1015.6
20260510141538 21 104 3.2 9.7 0.00 0.00 0.00 62 1013.9
20260510141327 22 175 3.2 9.7 0.00 0.00 0.00 64 1016.1
20260510140835 21 220 3.2 9.7 0.00 0.00 0.00 62 1016.0
20260510140323 21 231 3.2 8.0 0.00 0.00 0.00 64 1016.1
20260510140040 21 189 3.2 8.0 0.00 0.00 0.00 64 1013.7
20260510140007 21 187 3.2 8.0 0.00 0.00 0.00 65 1015.5
20260510135811 21 151 1.6 4.8 0.00 0.00 0.00 64 1016.0
20260510135321 21 115 3.2 4.8 0.00 0.00 0.00 66 1016.0
20260510134826 21 293 1.6 6.4 0.00 0.00 0.00 67 1016.0
20260510134556 20 196 0.0 12.9 0.00 0.00 0.00 66 1015.5
20260510134545 20 0 1.6 12.9 0.00 0.00 0.00 64 1013.7
20260510134315 21 229 1.6 12.9 0.00 0.00 0.00 65 1016.0
20260510133826 21 176 3.2 8.0 0.00 0.00 0.00 68 1015.9
20260510133334 20 185 6.4 12.9 0.00 0.00 0.00 71 1015.6
20260510133036 20 164 3.2 14.5 0.00 0.00 0.00 72 1013.5
20260510133034 20 255 3.2 12.9 0.00 0.00 0.00 72 1015.2
20260510132815 20 202 3.2 14.5 0.00 0.00 0.00 73 1015.6
20260510132322 19 142 3.2 14.5 0.00 0.00 0.00 77 1015.6
20260510131810 18 249 3.2 9.7 0.00 0.00 0.00 81 1015.9
20260510131558 18 140 1.6 12.9 0.00 0.00 0.00 82 1015.4
20260510131534 18 197 1.6 14.5 0.00 0.00 0.00 82 1013.6
20260510131337 18 186 4.8 12.9 0.00 0.00 0.00 83 1016.0
20260510130825 17 165 4.8 14.5 0.00 0.00 0.00 88 1016.0
20260510130314 16 156 3.2 8.0 0.00 0.00 0.00 90 1016.0
20260510130038 16 229 0.0 8.0 0.00 0.00 0.00 91 1013.8
20260510130012 16 256 0.0 6.4 0.00 0.00 0.00 92 1015.6
20260510125822 16 196 0.0 6.4 0.00 0.00 0.00 93 1016.0
20260510125330 16 188 3.2 9.7 0.00 0.00 0.00 94 1015.9
20260510124837 16 227 3.2 9.7 0.00 0.00 0.00 94 1015.8
20260510124546 15 167 1.6 8.0 0.00 0.00 0.00 94 1013.6
20260510124540 15 172 3.2 11.3 0.00 0.00 0.00 94 1015.5
20260510124318 15 217 3.2 6.4 0.00 0.00 0.00 95 1015.9
20260510123826 15 202 1.6 3.2 0.00 0.00 0.00 95 1015.9
20260510123314 15 162 1.6 6.4 0.00 0.00 0.00 95 1016.0
20260510123037 14 131 1.6 8.0 0.00 0.00 0.00 94 1013.7
20260510123021 14 131 1.6 6.4 0.00 0.00 0.00 95 1015.5
20260510122823 14 142 1.6 8.0 0.00 0.00 0.00 94 1016.0
20260510122331 13 182 3.2 8.0 0.00 0.00 0.00 94 1015.9
20260510121814 13 184 3.2 4.8 0.00 0.00 0.00 94 1015.9
20260510121558 12 166 1.6 4.8 0.00 0.00 0.00 94 1015.4
20260510121536 12 180 1.6 6.4 0.00 0.00 0.00 94 1013.6
20260510121322 12 200 1.6 4.8 0.00 0.00 0.00 94 1015.9
20260510120810 12 167 1.6 3.2 0.00 0.00 0.00 93 1015.9
20260510120340 12 175 1.6 3.2 0.00 0.00 0.00 92 1015.7
20260510120040 11 0 0.0 0.0 0.00 0.00 0.00 92 1013.5
20260510120022 11 175 0.0 0.0 0.00 0.00 0.00 92 1015.3
20260510115827 11 175 0.0 0.0 0.00 0.00 0.00 92 1015.7
20260510115337 11 175 0.0 3.2 0.00 0.00 0.00 92 1015.6
20260510114844 11 175 0.0 4.8 0.00 0.00 0.00 91 1015.5
20260510114533 10 175 1.6 6.4 0.00 0.00 0.00 91 1013.3
20260510114529 10 175 1.6 4.8 0.00 0.00 0.00 91 1015.1
20260510114332 11 175 3.2 4.8 0.00 0.00 0.00 91 1015.4
20260510113815 10 180 1.6 3.2 0.00 0.00 0.00 91 1015.5
20260510113323 10 180 0.0 3.2 0.00 0.00 0.00 91 1015.4
20260510113038 10 0 0.0 3.2 0.00 0.00 0.00 90 1013.1
20260510113009 10 185 0.0 3.2 0.00 0.00 0.00 90 1014.9
20260510112812 10 140 0.0 3.2 0.00 0.00 0.00 90 1015.2
20260510112315 10 108 0.0 0.0 0.00 0.00 0.00 90 1015.1
20260510111853 10 37 0.0 1.6 0.00 0.00 0.00 90 1015.0
20260510111551 10 0 0.0 1.6 0.00 0.00 0.00 89 1012.8
20260510111537 10 158 0.0 1.6 0.00 0.00 0.00 90 1014.5
20260510111315 10 146 0.0 1.6 0.00 0.00 0.00 90 1014.8
20260510110824 10 146 0.0 0.0 0.00 0.00 0.00 90 1014.8
20260510110317 10 146 0.0 0.0 0.00 0.00 0.00 90 1014.8
20260510110037 9 0 0.0 0.0 0.00 0.00 0.00 89 1012.7
20260510110030 9 146 0.0 0.0 0.00 0.00 0.00 89 1014.4
20260510105825 9 146 0.0 0.0 0.00 0.00 0.00 89 1014.6
20260510105310 9 146 0.0 0.0 0.00 0.00 0.00 89 1014.6
20260510104818 10 146 0.0 0.0 0.00 0.00 0.00 89 1014.5
20260510104619 9 146 0.0 0.0 0.00 0.00 0.00 89 1014.2
20260510104545 9 0 0.0 0.0 0.00 0.00 0.00 89 1012.3
20260510104327 10 146 0.0 0.0 0.00 0.00 0.00 89 1014.5
20260510103816 10 146 0.0 0.0 0.00 0.00 0.00 89 1014.5
20260510103326 10 146 0.0 0.0 0.00 0.00 0.00 89 1014.4
20260510103043 9 137 0.0 0.0 0.00 0.00 0.00 89 1013.9
20260510103038 9 0 0.0 1.6 0.00 0.00 0.00 89 1012.2
20260510102835 10 165 0.0 0.0 0.00 0.00 0.00 89 1014.4
20260510102343 10 263 0.0 1.6 0.00 0.00 0.00 89 1014.4
20260510101833 10 289 0.0 0.0 0.00 0.00 0.00 89 1014.4
20260510101537 10 325 0.0 0.0 0.00 0.00 0.00 89 1014.1
20260510101535 10 0 0.0 0.0 0.00 0.00 0.00 89 1012.2
20260510101315 10 337 0.0 0.0 0.00 0.00 0.00 89 1014.4
20260510100823 10 337 0.0 0.0 0.00 0.00 0.00 89 1014.3
20260510100332 10 337 0.0 0.0 0.00 0.00 0.00 89 1014.2
20260510100058 10 337 0.0 0.0 0.00 0.00 0.00 89 1013.8
20260510100032 10 0 0.0 0.0 0.00 0.00 0.00 89 1011.9
20260510095842 10 337 0.0 0.0 0.00 0.00 0.00 89 1014.1
20260510095310 10 196 0.0 4.8 0.00 0.00 0.00 89 1014.0
20260510094818 10 191 0.0 4.8 0.00 0.00 0.00 89 1013.8
20260510094540 10 219 1.6 6.4 0.00 0.00 0.00 88 1011.6
20260510094520 10 219 1.6 4.8 0.00 0.00 0.00 89 1013.4
20260510094327 10 207 1.6 6.4 0.00 0.00 0.00 89 1013.8
20260510093809 10 204 0.0 0.0 0.00 0.00 0.00 89 1013.8
20260510093318 10 213 0.0 0.0 0.00 0.00 0.00 89 1013.8
20260510093059 10 213 0.0 0.0 0.00 0.00 0.00 89 1013.3
20260510093037 10 0 0.0 0.0 0.00 0.00 0.00 88 1011.5
20260510092827 10 213 0.0 0.0 0.00 0.00 0.00 89 1013.8
20260510092316 10 250 0.0 0.0 0.00 0.00 0.00 89 1013.7
20260510091845 10 250 0.0 0.0 0.00 0.00 0.00 89 1013.6
20260510091536 10 0 0.0 0.0 0.00 0.00 0.00 88 1011.5
20260510091524 10 250 0.0 0.0 0.00 0.00 0.00 89 1013.3
20260510091333 10 250 0.0 0.0 0.00 0.00 0.00 89 1013.6
20260510090843 10 250 0.0 0.0 0.00 0.00 0.00 89 1013.6
20260510090324 10 250 0.0 0.0 0.00 0.00 0.00 89 1013.6
20260510090057 10 252 0.0 0.0 0.00 0.00 0.00 89 1013.1
20260510090036 10 0 0.0 0.0 0.00 0.00 0.00 88 1011.3
20260510085814 10 265 0.0 0.0 0.00 0.00 0.00 89 1013.5
20260510085324 10 261 0.0 0.0 0.00 0.00 0.00 89 1013.4
20260510084834 10 262 0.0 0.0 0.00 0.00 0.00 89 1013.5
20260510084539 10 270 0.0 0.0 0.00 0.00 0.00 89 1013.1
20260510084536 10 0 0.0 0.0 0.00 0.00 0.00 88 1011.3
20260510084316 10 236 0.0 0.0 0.00 0.00 0.00 89 1013.3
20260510083823 10 236 0.0 0.0 0.00 0.00 0.00 89 1013.4
20260510083313 10 236 0.0 0.0 0.00 0.00 0.00 89 1013.3
20260510083037 10 0 0.0 0.0 0.00 0.00 0.00 88 1011.1
20260510083008 10 236 0.0 0.0 0.00 0.00 0.00 89 1012.8
20260510082824 10 236 0.0 0.0 0.00 0.00 0.00 89 1013.1
20260510082332 10 236 0.0 0.0 0.00 0.00 0.00 89 1013.2
20260510081840 11 190 0.0 0.0 0.00 0.00 0.00 89 1013.1
20260510081542 10 0 0.0 0.0 0.00 0.00 0.00 88 1011.0
20260510081535 10 182 0.0 0.0 0.00 0.00 0.00 89 1012.8
20260510081321 11 182 0.0 0.0 0.00 0.00 0.00 89 1013.2
20260510080827 11 182 0.0 1.6 0.00 0.00 0.00 89 1013.1
20260510080335 11 182 0.0 3.2 0.00 0.00 0.00 89 1013.1
20260510080049 10 182 0.0 3.2 0.00 0.00 0.00 89 1012.6
20260510080039 10 0 0.0 3.2 0.00 0.00 0.00 88 1010.9
20260510075822 11 182 1.6 3.2 0.00 0.00 0.00 89 1013.0
20260510075312 11 182 1.6 4.8 0.00 0.00 0.00 89 1013.0
20260510074823 11 182 1.6 4.8 0.00 0.00 0.00 89 1012.9
20260510074537 11 0 0.0 4.8 0.00 0.00 0.00 88 1010.7
20260510074527 11 206 0.0 3.2 0.00 0.00 0.00 88 1012.6
20260510074333 11 202 1.6 4.8 0.00 0.00 0.00 89 1013.0
20260510073820 11 190 1.6 4.8 0.00 0.00 0.00 88 1013.0
20260510073330 11 182 1.6 3.2 0.00 0.00 0.00 89 1012.9
20260510073040 11 173 1.6 4.8 0.00 0.00 0.00 89 1012.5
20260510073035 11 190 1.6 4.8 0.00 0.00 0.00 88 1010.7
20260510072812 11 190 1.6 4.8 0.00 0.00 0.00 89 1013.0
20260510072322 11 215 3.2 4.8 0.00 0.00 0.00 89 1013.0
20260510071812 11 221 1.6 4.8 0.00 0.00 0.00 89 1013.0
20260510071533 11 225 1.6 4.8 0.00 0.00 0.00 88 1010.7
20260510071505 11 225 1.6 4.8 0.00 0.00 0.00 88 1012.6
20260510071342 11 185 1.6 4.8 0.00 0.00 0.00 88 1013.0
20260510070810 11 213 1.6 4.8 0.00 0.00 0.00 88 1013.0
20260510070320 11 228 1.6 4.8 0.00 0.00 0.00 88 1013.1
20260510070035 11 223 1.6 4.8 0.00 0.00 0.00 87 1010.7
20260510070028 11 223 1.6 4.8 0.00 0.00 0.00 88 1012.6
20260510065829 11 219 1.6 4.8 0.00 0.00 0.00 88 1013.0
20260510065312 11 198 3.2 4.8 0.00 0.00 0.00 88 1012.9
20260510064822 11 202 3.2 4.8 0.00 0.00 0.00 88 1013.0
20260510064537 11 204 1.6 4.8 0.00 0.00 0.00 87 1010.7
20260510064504 11 204 1.6 4.8 0.00 0.00 0.00 88 1012.6
20260510064312 11 203 3.2 4.8 0.00 0.00 0.00 88 1013.1
20260510063821 11 225 1.6 4.8 0.00 0.00 0.00 88 1013.2
20260510063332 11 219 1.6 4.8 0.00 0.00 0.00 88 1013.1
20260510063043 11 214 1.6 4.8 0.00 0.00 0.00 88 1012.6
20260510063039 11 240 1.6 4.8 0.00 0.00 0.00 87 1010.9
20260510062841 11 240 3.2 4.8 0.00 0.00 0.00 88 1013.1
20260510062332 11 225 1.6 4.8 0.00 0.00 0.00 87 1013.1
20260510061813 11 226 1.6 4.8 0.00 0.00 0.00 87 1013.0
20260510061543 11 229 1.6 4.8 0.00 0.00 0.00 87 1012.6
20260510061538 11 229 1.6 4.8 0.00 0.00 0.00 87 1010.8
20260510061321 11 235 3.2 4.8 0.00 0.00 0.00 87 1013.1
20260510060812 11 240 3.2 4.8 0.00 0.00 0.00 87 1013.1
20260510060322 11 224 0.0 0.0 0.00 0.00 0.00 87 1013.1
20260510060047 11 0 0.0 0.0 0.00 0.00 0.00 86 1010.9
20260510060034 11 216 0.0 0.0 0.00 0.00 0.00 87 1012.7
20260510055832 11 216 0.0 0.0 0.00 0.00 0.00 87 1013.1
20260510055315 11 202 0.0 0.0 0.00 0.00 0.00 87 1013.2
20260510054809 11 204 0.0 0.0 0.00 0.00 0.00 87 1013.1
20260510054534 11 0 0.0 3.2 0.00 0.00 0.00 86 1010.9
20260510054523 11 204 0.0 0.0 0.00 0.00 0.00 87 1012.8
20260510054319 11 226 0.0 3.2 0.00 0.00 0.00 87 1013.2
20260510053821 11 239 0.0 4.8 0.00 0.00 0.00 87 1013.2
20260510053328 11 239 3.2 4.8 0.00 0.00 0.00 87 1013.3
20260510053033 11 242 1.6 4.8 0.00 0.00 0.00 86 1011.0
20260510053003 11 229 1.6 4.8 0.00 0.00 0.00 87 1012.9
20260510052816 11 209 1.6 4.8 0.00 0.00 0.00 87 1013.4
20260510052326 11 229 1.6 3.2 0.00 0.00 0.00 87 1013.4
20260510051809 11 243 1.6 3.2 0.00 0.00 0.00 87 1013.5
20260510051600 11 219 0.0 0.0 0.00 0.00 0.00 87 1013.1
20260510051545 11 0 0.0 0.0 0.00 0.00 0.00 86 1011.1
20260510051338 11 219 0.0 0.0 0.00 0.00 0.00 86 1013.5
20260510050855 11 219 0.0 0.0 0.00 0.00 0.00 86 1013.6
20260510050316 11 218 0.0 0.0 0.00 0.00 0.00 86 1013.5
20260510050050 11 214 0.0 0.0 0.00 0.00 0.00 86 1013.2
20260510050039 11 0 0.0 0.0 0.00 0.00 0.00 86 1011.2
20260510045826 11 214 0.0 0.0 0.00 0.00 0.00 86 1013.6
20260510045315 11 238 0.0 0.0 0.00 0.00 0.00 86 1013.5
20260510044825 11 218 0.0 0.0 0.00 0.00 0.00 86 1013.4
20260510044538 11 0 0.0 0.0 0.00 0.00 0.00 85 1011.2
20260510044531 11 218 0.0 0.0 0.00 0.00 0.00 86 1013.0
20260510044334 11 229 0.0 0.0 0.00 0.00 0.00 86 1013.5
20260510043815 11 229 0.0 0.0 0.00 0.00 0.00 86 1013.5
20260510043325 11 229 0.0 0.0 0.00 0.00 0.00 85 1013.5
20260510043042 11 0 0.0 0.0 0.00 0.00 0.00 85 1011.4
20260510043007 11 229 0.0 0.0 0.00 0.00 0.00 85 1013.1
20260510042813 12 229 0.0 0.0 0.00 0.00 0.00 85 1013.5
20260510042322 12 233 0.0 0.0 0.00 0.00 0.00 85 1013.4
20260510041824 12 224 0.0 0.0 0.00 0.00 0.00 85 1013.5
20260510041607 11 224 0.0 0.0 0.00 0.00 0.00 85 1013.1
20260510041534 11 0 0.0 0.0 0.00 0.00 0.00 85 1011.2
20260510041313 12 224 0.0 0.0 0.00 0.00 0.00 85 1013.5
20260510040823 12 224 0.0 1.6 0.00 0.00 0.00 85 1013.5
20260510040331 12 224 0.0 3.2 0.00 0.00 0.00 85 1013.5
20260510040042 12 224 0.0 4.8 0.00 0.00 0.00 85 1013.0
20260510040039 12 224 0.0 4.8 0.00 0.00 0.00 84 1011.2
20260510035840 12 224 1.6 4.8 0.00 0.00 0.00 85 1013.4
20260510035321 12 230 3.2 4.8 0.00 0.00 0.00 85 1013.4
20260510034812 12 239 3.2 3.2 0.00 0.00 0.00 85 1013.4
20260510034544 12 239 0.0 3.2 0.00 0.00 0.00 84 1011.2
20260510034505 12 239 0.0 3.2 0.00 0.00 0.00 84 1013.0
20260510034340 12 239 0.0 3.2 0.00 0.00 0.00 84 1013.4
20260510033827 12 239 1.6 4.8 0.00 0.00 0.00 84 1013.4
20260510033315 12 238 1.6 4.8 0.00 0.00 0.00 84 1013.4
20260510033041 12 242 0.0 4.8 0.00 0.00 0.00 83 1011.1
20260510033022 12 242 0.0 4.8 0.00 0.00 0.00 84 1012.9
20260510032824 12 227 0.0 0.0 0.00 0.00 0.00 84 1013.2
20260510032335 12 227 0.0 0.0 0.00 0.00 0.00 84 1013.2
20260510031817 12 227 0.0 0.0 0.00 0.00 0.00 84 1013.2
20260510031607 12 0 0.0 0.0 0.00 0.00 0.00 83 1010.9
20260510031602 12 227 0.0 0.0 0.00 0.00 0.00 83 1012.8
20260510031325 12 226 0.0 0.0 0.00 0.00 0.00 83 1013.1
20260510030837 13 226 0.0 0.0 0.00 0.00 0.00 83 1013.2
20260510030325 13 226 0.0 0.0 0.00 0.00 0.00 83 1013.1
20260510030038 12 0 0.0 0.0 0.00 0.00 0.00 82 1010.8
20260510030007 13 226 0.0 0.0 0.00 0.00 0.00 82 1012.6
20260510025812 13 226 0.0 0.0 0.00 0.00 0.00 82 1013.0
20260510025320 13 226 0.0 0.0 0.00 0.00 0.00 82 1012.9
20260510024830 13 226 0.0 0.0 0.00 0.00 0.00 81 1012.8
20260510024553 13 226 0.0 0.0 0.00 0.00 0.00 81 1012.3
20260510024538 13 0 0.0 0.0 0.00 0.00 0.00 81 1010.5
20260510024313 13 226 0.0 0.0 0.00 0.00 0.00 81 1012.7
20260510023821 13 238 0.0 0.0 0.00 0.00 0.00 81 1012.8
20260510023356 13 238 0.0 3.2 0.00 0.00 0.00 80 1012.8
20260510023052 13 238 0.0 3.2 0.00 0.00 0.00 80 1012.3
20260510023048 13 0 0.0 3.2 0.00 0.00 0.00 80 1010.6
20260510022818 13 238 1.6 3.2 0.00 0.00 0.00 80 1012.7
20260510022347 14 238 1.6 3.2 0.00 0.00 0.00 80 1012.7
20260510021815 14 238 1.6 3.2 0.00 0.00 0.00 79 1012.5
20260510021543 14 238 0.0 4.8 0.00 0.00 0.00 78 1010.4
20260510021519 14 238 0.0 4.8 0.00 0.00 0.00 79 1012.1
20260510021324 14 238 1.6 4.8 0.00 0.00 0.00 79 1012.5
20260510020834 15 238 3.2 4.8 0.00 0.00 0.00 78 1012.5
20260510020317 15 238 1.6 4.8 0.00 0.00 0.00 78 1012.4
20260510020037 15 0 0.0 4.8 0.00 0.00 0.00 77 1010.1
20260510020010 14 238 0.0 4.8 0.00 0.00 0.00 78 1011.8
20260510015828 15 238 1.6 4.8 0.00 0.00 0.00 78 1012.3
20260510015311 15 234 1.6 4.8 0.00 0.00 0.00 77 1012.2
20260510014821 15 234 1.6 4.8 0.00 0.00 0.00 77 1012.2
20260510014606 15 191 1.6 3.2 0.00 0.00 0.00 76 1011.7
20260510014535 15 191 0.0 3.2 0.00 0.00 0.00 76 1010.0
20260510014310 15 192 0.0 3.2 0.00 0.00 0.00 76 1012.0
20260510013839 15 186 0.0 3.2 0.00 0.00 0.00 75 1011.9
20260510013324 15 176 0.0 1.6 0.00 0.00 0.00 75 1011.8
20260510013107 15 176 0.0 3.2 0.00 0.00 0.00 74 1011.2
20260510013038 15 0 0.0 3.2 0.00 0.00 0.00 74 1009.6
20260510012814 16 176 0.0 3.2 0.00 0.00 0.00 74 1011.6
20260510012324 16 176 0.0 3.2 0.00 0.00 0.00 74 1011.5
20260510011809 16 174 0.0 3.2 0.00 0.00 0.00 73 1011.6
20260510011548 16 0 0.0 3.2 0.00 0.00 0.00 72 1009.3
20260510011317 16 174 0.0 3.2 0.00 0.00 0.00 72 1011.3
20260510010315 17 174 0.0 1.6 0.00 0.00 0.00 70 1011.4
20260510010044 17 174 0.0 1.6 0.00 0.00 0.00 69 1009.3
20260510010011 17 174 0.0 1.6 0.00 0.00 0.00 69 1010.9
20260510005846 17 174 0.0 1.6 0.00 0.00 0.00 69 1011.4
20260510005313 17 174 0.0 3.2 0.00 0.00 0.00 69 1011.3
20260510004823 18 174 0.0 3.2 0.00 0.00 0.00 67 1011.3
20260510004539 17 174 0.0 3.2 0.00 0.00 0.00 67 1010.8
20260510004537 17 0 0.0 3.2 0.00 0.00 0.00 66 1009.4
20260510004309 18 174 0.0 3.2 0.00 0.00 0.00 66 1011.2
20260510003818 18 174 1.6 3.2 0.00 0.00 0.00 66 1011.2
20260510003328 18 174 0.0 3.2 0.00 0.00 0.00 65 1011.0
20260510003038 18 0 0.0 3.2 0.00 0.00 0.00 64 1009.1
20260510003016 18 174 0.0 3.2 0.00 0.00 0.00 65 1010.5
20260510002817 18 174 0.0 3.2 0.00 0.00 0.00 65 1011.0
20260510002322 18 182 0.0 3.2 0.00 0.00 0.00 64 1011.0
20260510001810 18 182 0.0 4.8 0.00 0.00 0.00 64 1010.8
20260510001536 18 0 0.0 6.4 0.00 0.00 0.00 63 1008.8
20260510001506 18 190 0.0 4.8 0.00 0.00 0.00 64 1010.3
20260510001340 19 173 1.6 4.8 0.00 0.00 0.00 64 1010.8
20260510000830 19 190 1.6 4.8 0.00 0.00 0.00 63 1010.8
20260510000319 19 209 1.6 3.2 0.00 0.00 0.00 63 1010.7
20260510000037 19 0 0.0 3.2 0.00 0.00 0.00 62 1008.7
20260510000023 19 188 1.6 3.2 0.00 0.00 0.00 62 1010.2
20260509235828 19 200 0.0 1.6 0.00 0.00 0.00 62 1010.7
20260509235310 20 198 0.0 3.2 0.00 0.00 0.00 61 1010.6
20260509234846 20 236 1.6 4.8 0.00 0.00 0.00 61 1010.5
20260509234558 20 240 0.0 4.8 0.00 0.00 0.00 61 1010.1
20260509234536 20 0 0.0 4.8 0.00 0.00 0.00 61 1008.5
20260509234327 20 234 0.0 4.8 0.00 0.00 0.00 62 1010.5
20260509233817 20 191 1.6 9.7 0.00 0.00 0.00 61 1010.6
20260509233327 20 236 1.6 9.7 0.00 0.00 0.00 61 1010.5
20260509233037 20 192 1.6 8.0 0.00 0.00 0.00 58 1008.5
20260509233029 20 133 1.6 6.4 0.00 0.00 0.00 59 1010.0
20260509232810 20 236 3.2 6.4 0.00 0.00 0.00 59 1010.5
20260509232321 20 210 0.0 8.0 0.00 0.00 0.00 59 1010.5
20260509231810 20 229 3.2 8.0 0.00 0.00 0.00 58 1010.5
20260509231539 20 261 3.2 9.7 0.00 0.00 0.00 57 1008.6
20260509231528 20 257 3.2 8.0 0.00 0.00 0.00 58 1010.1
20260509231318 20 211 3.2 9.7 0.00 0.00 0.00 58 1010.6
20260509230823 21 159 0.0 9.7 0.00 0.00 0.00 57 1010.4
20260509230311 21 248 3.2 6.4 0.00 0.00 0.00 57 1010.5
20260509230039 20 219 3.2 9.7 0.00 0.00 0.00 57 1008.5
20260509230008 20 209 3.2 9.7 0.00 0.00 0.00 58 1010.1
20260509225820 21 230 4.8 9.7 0.00 0.00 0.00 57 1010.5
20260509225332 21 237 4.8 9.7 0.00 0.00 0.00 58 1010.5
20260509224814 21 219 1.6 4.8 0.00 0.00 0.00 57 1010.3
20260509224557 21 159 0.0 4.8 0.00 0.00 0.00 57 1009.9
20260509224536 21 159 0.0 4.8 0.00 0.00 0.00 56 1008.4
20260509224321 21 173 0.0 8.0 0.00 0.00 0.00 56 1010.3
20260509223832 22 192 3.2 9.7 0.00 0.00 0.00 55 1010.4
20260509223315 22 227 1.6 8.0 0.00 0.00 0.00 54 1010.4
20260509223046 22 195 0.0 8.0 0.00 0.00 0.00 54 1009.8
20260509223035 22 195 1.6 8.0 0.00 0.00 0.00 53 1008.3
20260509222825 22 233 3.2 8.0 0.00 0.00 0.00 53 1010.2
20260509222313 22 240 1.6 9.7 0.00 0.00 0.00 53 1010.4
20260509221843 22 266 4.8 9.7 0.00 0.00 0.00 54 1010.6
20260509221539 22 123 0.0 12.9 0.00 0.00 0.00 55 1008.5
20260509221511 22 121 0.0 12.9 0.00 0.00 0.00 55 1010.1
20260509221310 22 18 1.6 12.9 0.00 0.00 0.00 54 1010.7
20260509220820 22 169 4.8 12.9 0.00 0.00 0.00 53 1010.6
20260509220350 22 194 3.2 6.4 0.00 0.00 0.00 54 1010.6
20260509220044 21 346 1.6 9.7 0.00 0.00 0.00 53 1008.6
20260509220024 21 346 1.6 9.7 0.00 0.00 0.00 53 1010.2
20260509215816 22 227 3.2 9.7 0.00 0.00 0.00 54 1010.7
20260509215319 22 312 3.2 16.1 0.00 0.00 0.00 54 1010.6
20260509214828 22 347 4.8 17.7 0.00 0.00 0.00 53 1010.7
20260509214600 21 210 3.2 19.3 0.00 0.00 0.00 55 1010.2
20260509214539 21 268 4.8 19.3 0.00 0.00 0.00 54 1008.7
20260509214317 22 145 6.4 19.3 0.00 0.00 0.00 54 1010.8
20260509213826 21 308 4.8 14.5 0.00 0.00 0.00 55 1010.9
20260509213336 21 281 1.6 8.0 0.00 0.00 0.00 56 1010.7
20260509213047 21 0 1.6 9.7 0.00 0.00 0.00 55 1008.7
20260509212818 21 229 4.8 8.0 0.00 0.00 0.00 56 1010.8
20260509212328 21 184 0.0 4.8 0.00 0.00 0.00 56 1010.8
20260509211817 21 165 3.2 17.7 0.00 0.00 0.00 55 1010.7
20260509211604 21 194 1.6 17.7 0.00 0.00 0.00 54 1008.6
20260509211535 21 175 1.6 17.7 0.00 0.00 0.00 55 1010.3
20260509211320 21 209 4.8 17.7 0.00 0.00 0.00 55 1010.6
20260509210809 22 12 1.6 6.4 0.00 0.00 0.00 55 1010.7
20260509210319 22 185 1.6 12.9 0.00 0.00 0.00 55 1010.8
20260509210038 21 216 3.2 12.9 0.00 0.00 0.00 54 1008.6
20260509210015 21 214 3.2 12.9 0.00 0.00 0.00 55 1010.3
20260509205849 22 317 4.8 12.9 0.00 0.00 0.00 55 1010.8
20260509205337 22 164 0.0 12.9 0.00 0.00 0.00 56 1010.8